Вернуться в каталог

SL-8 DEB

АктивенLEO
NORAD 1479·DEBRIS·🇷🇺 Russia

Запущен Mar 15, 1965 с Baikonur Cosmodrome

Loading…

Ближайшие Пролёты (ближайшие 24 часа)

TLE

СвежийSource: Space-Track

Эпоха: Sep 13, 2026, 13:23 UTC

1  1479U 65020BD  26256.55765601  .00000579  00000-0  13696-2 0  9998
2  1479  56.0351  53.1537 0736867 191.6343 166.6690 12.60063445807506

Отслеживайте SL-8 DEB в реальном времени с AllMySat

Download on the App Store